When you browse on this site, cookies collect data to enhance your experience and personalize the content and advertising you see.
Visit our Privacy Policy to learn more. By continuing to use the site, you agree to this use of cookies and data.
  • In Spain
  • List of Countries
  • For 7 days
  • Water Temperature
  • Weather Map
  • Weather Widgets
  • user-avatar
    Login

    Hourly Weather Campobasso

    Today, 20 September, Friday

    Time Temperature Precipitation Wind Pressure Humidity
    00:00 +15°C° 0.1 mm 2 mps 702 mmHg 89%
    01:00 +14°C° 0.1 mm 3 mps 702 mmHg 88%
    02:00 +15°C° 0 mm 2 mps 702 mmHg 88%
    03:00 +14°C° 0 mm 2 mps 702 mmHg 88%
    04:00 +14°C° 0 mm 2 mps 702 mmHg 87%
    05:00 +13°C° 0 mm 3 mps 702 mmHg 85%
    06:00 +13°C° 0 mm 3 mps 702 mmHg 82%
    07:00 +13°C° 0 mm 3 mps 702 mmHg 79%
    08:00 +14°C° 0 mm 3 mps 702 mmHg 71%
    09:00 +15°C° 0 mm 4 mps 703 mmHg 63%
    10:00 +17°C° 0 mm 4 mps 704 mmHg 55%
    11:00 +18°C° 0 mm 4 mps 704 mmHg 51%
    12:00 +18°C° 0 mm 4 mps 704 mmHg 47%
    13:00 +19°C° 0 mm 4 mps 704 mmHg 43%
    14:00 +19°C° 0 mm 4 mps 704 mmHg 44%
    15:00 +19°C° 0 mm 4 mps 704 mmHg 45%
    16:00 +18°C° 0 mm 3 mps 703 mmHg 46%
    17:00 +17°C° 0 mm 3 mps 703 mmHg 55%
    18:00 +15°C° 0 mm 2 mps 703 mmHg 63%
    19:00 +13°C° 0 mm 2 mps 703 mmHg 71%
    20:00 +13°C° 0 mm 2 mps 703 mmHg 74%
    21:00 +12°C° 0 mm 1 mps 703 mmHg 77%
    22:00 +12°C° 0 mm 1 mps 703 mmHg 80%
    23:00 +11°C° 0 mm 1 mps 703 mmHg 81%

    Tomorrow, 21 September, Saturday

    Time Temperature Precipitation Wind Pressure Humidity
    00:00 +11°C° 0 mm 1 mps 703 mmHg 81%
    01:00 +11°C° 0 mm 1 mps 703 mmHg 82%
    02:00 +11°C° 0 mm 1 mps 703 mmHg 83%
    03:00 +10°C° 0 mm 1 mps 703 mmHg 84%
    04:00 +10°C° 0 mm 1 mps 703 mmHg 84%
    05:00 +11°C° 0 mm 1 mps 703 mmHg 82%
    06:00 +12°C° 0 mm 1 mps 703 mmHg 79%
    07:00 +12°C° 0 mm 1 mps 703 mmHg 76%
    08:00 +15°C° 0 mm 1 mps 704 mmHg 65%
    09:00 +18°C° 0 mm 1 mps 705 mmHg 55%
    10:00 +20°C° 0 mm 1 mps 705 mmHg 44%
    11:00 +21°C° 0 mm 1 mps 705 mmHg 42%
    12:00 +21°C° 0 mm 2 mps 706 mmHg 39%
    13:00 +24°C° 0 mm 2 mps 706 mmHg 37%
    14:00 +23°C° 0 mm 2 mps 705 mmHg 38%
    15:00 +23°C° 0 mm 2 mps 705 mmHg 40%
    16:00 +23°C° 0 mm 2 mps 705 mmHg 41%
    17:00 +20°C° 0 mm 2 mps 704 mmHg 49%
    18:00 +19°C° 0 mm 1 mps 704 mmHg 56%
    19:00 +15°C° 0 mm 0 mps 704 mmHg 64%
    20:00 +15°C° 0 mm 0 mps 704 mmHg 64%
    21:00 +15°C° 0 mm 1 mps 704 mmHg 64%
    22:00 +15°C° 0 mm 1 mps 704 mmHg 64%
    23:00 +15°C° 0 mm 1 mps 704 mmHg 65%

    Day after tomorrow, 22 September, Sunday

    Time Temperature Precipitation Wind Pressure Humidity
    00:00 +15°C° 0 mm 1 mps 704 mmHg 65%
    01:00 +15°C° 0 mm 1 mps 703 mmHg 65%
    02:00 +15°C° 0 mm 1 mps 703 mmHg 67%
    03:00 +14°C° 0 mm 1 mps 703 mmHg 69%
    04:00 +14°C° 0 mm 1 mps 702 mmHg 71%
    05:00 +15°C° 0 mm 1 mps 702 mmHg 69%
    06:00 +16°C° 0 mm 1 mps 702 mmHg 68%
    07:00 +16°C° 0 mm 1 mps 702 mmHg 67%
    08:00 +18°C° 0.1 mm 2 mps 703 mmHg 62%
    09:00 +20°C° 0.1 mm 3 mps 704 mmHg 57%
    10:00 +22°C° 0.1 mm 4 mps 704 mmHg 53%
    11:00 +23°C° 0.2 mm 4 mps 704 mmHg 53%
    12:00 +23°C° 0.2 mm 4 mps 703 mmHg 53%
    13:00 +25°C° 0.2 mm 3 mps 703 mmHg 54%
    14:00 +24°C° 0.1 mm 3 mps 703 mmHg 58%
    15:00 +22°C° 0.1 mm 3 mps 702 mmHg 61%
    16:00 +22°C° 0.1 mm 3 mps 702 mmHg 65%
    17:00 +21°C° 0 mm 3 mps 702 mmHg 71%
    18:00 +20°C° 0 mm 2 mps 701 mmHg 76%
    19:00 +20°C° 0 mm 1 mps 701 mmHg 81%
    20:00 +18°C° 0.1 mm 2 mps 701 mmHg 82%
    21:00 +18°C° 0.1 mm 2 mps 701 mmHg 84%
    22:00 +18°C° 0.1 mm 2 mps 701 mmHg 85%
    23:00 +18°C° 0.1 mm 2 mps 701 mmHg 85%

    23 September, Monday

    Time Temperature Precipitation Wind Pressure Humidity
    00:00 +18°C° 0.1 mm 2 mps 700 mmHg 86%
    01:00 +17°C° 0.1 mm 2 mps 700 mmHg 86%
    02:00 +17°C° 0 mm 2 mps 700 mmHg 86%
    03:00 +17°C° 0 mm 2 mps 700 mmHg 86%
    04:00 +17°C° 0 mm 3 mps 699 mmHg 85%
    05:00 +17°C° 0 mm 2 mps 699 mmHg 85%
    06:00 +17°C° 0 mm 2 mps 699 mmHg 84%
    07:00 +18°C° 0 mm 2 mps 699 mmHg 83%
    08:00 +19°C° 0.2 mm 3 mps 699 mmHg 81%
    09:00 +20°C° 0.2 mm 3 mps 699 mmHg 78%
    10:00 +21°C° 0.2 mm 4 mps 699 mmHg 76%
    11:00 +21°C° 0.3 mm 5 mps 699 mmHg 75%
    12:00 +22°C° 0.3 mm 5 mps 699 mmHg 73%
    13:00 +23°C° 0.3 mm 6 mps 699 mmHg 72%
    14:00 +22°C° 0.1 mm 6 mps 698 mmHg 74%
    15:00 +22°C° 0.1 mm 5 mps 698 mmHg 75%
    16:00 +21°C° 0.1 mm 5 mps 697 mmHg 77%
    17:00 +20°C° 0 mm 4 mps 697 mmHg 81%
    18:00 +19°C° 0 mm 4 mps 697 mmHg 86%
    19:00 +18°C° 0 mm 3 mps 697 mmHg 90%
    20:00 +18°C° 0 mm 3 mps 697 mmHg 90%
    21:00 +17°C° 0 mm 3 mps 697 mmHg 89%
    22:00 +17°C° 0 mm 4 mps 697 mmHg 88%
    23:00 +17°C° 0 mm 3 mps 697 mmHg 86%

    24 September, Tuesday

    Time Temperature Precipitation Wind Pressure Humidity
    00:00 +16°C° 0 mm 3 mps 697 mmHg 83%
    01:00 +16°C° 0 mm 2 mps 697 mmHg 81%
    02:00 +15°C° 0 mm 2 mps 697 mmHg 82%
    03:00 +14°C° 0 mm 2 mps 696 mmHg 84%
    04:00 +13°C° 0 mm 1 mps 696 mmHg 85%
    05:00 +14°C° 0 mm 1 mps 696 mmHg 83%
    06:00 +14°C° 0 mm 1 mps 696 mmHg 81%
    07:00 +15°C° 0 mm 1 mps 696 mmHg 79%
    08:00 +16°C° 0 mm 1 mps 697 mmHg 71%
    09:00 +19°C° 0 mm 1 mps 698 mmHg 63%
    10:00 +21°C° 0 mm 1 mps 698 mmHg 55%
    11:00 +20°C° 0 mm 2 mps 698 mmHg 53%
    12:00 +21°C° 0 mm 2 mps 698 mmHg 50%
    13:00 +22°C° 0 mm 3 mps 698 mmHg 48%
    14:00 +21°C° 0.1 mm 3 mps 698 mmHg 51%
    15:00 +21°C° 0.1 mm 3 mps 698 mmHg 54%
    16:00 +20°C° 0.1 mm 4 mps 698 mmHg 57%
    17:00 +19°C° 0 mm 3 mps 698 mmHg 65%
    18:00 +17°C° 0 mm 2 mps 698 mmHg 72%
    19:00 +15°C° 0 mm 2 mps 698 mmHg 79%
    20:00 +15°C° 0 mm 2 mps 698 mmHg 82%
    21:00 +14°C° 0 mm 1 mps 698 mmHg 84%
    22:00 +14°C° 0 mm 1 mps 698 mmHg 87%
    23:00 +14°C° 0 mm 1 mps 698 mmHg 88%

    25 September, Wednesday

    Time Temperature Precipitation Wind Pressure Humidity
    00:00 +13°C° 0 mm 1 mps 698 mmHg 88%
    01:00 +13°C° 0 mm 1 mps 697 mmHg 89%
    02:00 +13°C° 0 mm 1 mps 697 mmHg 89%
    03:00 +13°C° 0 mm 1 mps 697 mmHg 89%
    04:00 +13°C° 0 mm 1 mps 697 mmHg 88%
    05:00 +13°C° 0 mm 1 mps 697 mmHg 85%
    06:00 +14°C° 0 mm 1 mps 697 mmHg 82%
    07:00 +15°C° 0 mm 1 mps 697 mmHg 79%
    08:00 +18°C° 0 mm 1 mps 698 mmHg 71%
    09:00 +20°C° 0 mm 1 mps 699 mmHg 63%
    10:00 +22°C° 0 mm 1 mps 699 mmHg 55%
    11:00 +23°C° 0 mm 2 mps 699 mmHg 51%
    12:00 +24°C° 0 mm 2 mps 699 mmHg 48%
    13:00 +25°C° 0 mm 3 mps 699 mmHg 44%
    14:00 +24°C° 0 mm 3 mps 699 mmHg 46%
    15:00 +24°C° 0 mm 3 mps 699 mmHg 48%
    16:00 +24°C° 0 mm 3 mps 698 mmHg 51%
    17:00 +21°C° 0 mm 2 mps 698 mmHg 59%
    18:00 +19°C° 0 mm 2 mps 698 mmHg 68%
    19:00 +18°C° 0 mm 1 mps 698 mmHg 77%
    20:00 +18°C° 0 mm 1 mps 698 mmHg 80%
    21:00 +16°C° 0 mm 1 mps 698 mmHg 83%
    22:00 +16°C° 0 mm 2 mps 699 mmHg 86%
    23:00 +15°C° 0 mm 2 mps 698 mmHg 87%
    Show more